Wind_Speed
57 61 63 64 65 71 75 79 88 88 76 80 84 89 93 94 93 96 93 97 101 97 98 95 93 91 87 78 80 84 80 74 73 74 72 73 72 72 71 67 65 66 67 63 64
27 48 58 61 64 66 73 79 87 92 86 84 87 85 89 89 94 88 98 104 101 102 98 99 94 96 93 91 90 82 77 76 70 74 71 75 74 72 73 67 67 67 68 69 72
20 30 44 54 58 65 69 75 82 91 95 94 91 85 85 87 88 93 96 98 99 100 99 107 99 95 91 95 91 86 72 72 70 71 74 75 74 74 73 69 72 78 74 72 74
25 28 33 42 52 61 67 73 79 86 91 101 98 101 94 85 90 88 92 99 99 103 101 102 104 106 100 98 91 94 85 79 77 77 77 72 74 76 73 72 76 75 73 72 75
33 36 38 41 44 48 56 67 76 83 87 94 97 103 105 98 96 96 95 93 98 100 100 101 104 103 104 105 103 99 87 92 89 87 84 83 79 75 74 71 72 69 71 70 71
36 41 45 49 51 54 56 58 63 74 84 90 94 104 108 106 109 109 103 97 97 96 96 98 97 102 102 98 103 97 97 93 91 85 83 87 83 81 74 74 70 71 70 70 69
33 38 45 51 57 62 64 66 68 70 75 84 90 96 101 106 113 119 112 111 111 105 104 97 98 97 98 99 95 95 102 98 88 83 80 87 76 70 70 71 70 72 70 69 67
36 38 42 47 53 59 66 71 76 79 81 83 87 92 93 105 108 115 118 116 115 115 109 111 113 104 95 90 89 89 92 86 76 78 78 89 70 71 78 75 73 78 82 79 69
37 39 41 44 48 53 59 67 76 82 88 93 94 95 96 102 106 111 115 118 122 125 119 119 119 115 109 100 98 95 85 86 79 84 89 94 66 77 83 87 85 80 77 76 70
38 40 43 43 48 52 56 61 66 78 86 99 103 101 104 108 106 108 111 115 117 118 121 125 123 122 118 112 103 100 99 95 91 98 100 96 76 80 83 84 83 82 79 75 75
41 45 48 49 54 60 62 61 68 73 85 97 101 107 113 112 110 111 111 111 114 117 116 117 122 114 106 109 115 112 103 96 95 101 100 93 86 78 83 82 78 74 74 76 77
46 49 50 54 60 66 64 63 66 72 80 97 94 97 106 119 111 111 113 113 114 115 117 116 108 107 110 116 113 112 107 101 103 101 99 99 90 89 88 86 85 84 79 79 79
48 50 53 59 66 66 62 64 73 75 69 68 75 90 98 102 109 118 121 118 117 115 114 114 107 109 110 110 107 105 100 98 99 100 99 104 97 97 89 88 84 82 81 82 82
49 51 58 61 67 61 62 68 76 73 64 56 59 66 79 84 95 106 119 125 122 117 114 107 104 105 107 108 107 103 102 100 99 99 92 95 82 79 74 76 77 77 77 77 78
47 52 59 62 60 57 60 68 74 62 46 44 49 53 66 75 82 95 103 115 122 123 118 105 108 108 107 103 105 95 100 99 98 96 93 86 80 64 68 67 69 66 64 64 64
49 55 58 62 58 57 60 67 63 54 44 36 38 44 50 64 77 88 90 97 112 119 119 115 114 111 104 104 100 92 94 96 98 97 90 83 81 68 66 69 63 58 55 54 53
55 60 62 64 61 60 62 67 62 51 42 36 31 37 44 53 67 81 87 91 94 108 113 118 120 112 108 103 98 94 94 93 94 94 75 72 73 59 62 62 56 52 47 46 46
54 61 63 62 63 63 66 67 56 45 38 34 31 30 40 47 56 67 80 88 93 93 96 110 113 111 109 107 101 96 95 88 79 76 65 69 66 50 50 44 45 44 41 38 35
57 62 65 66 67 66 68 63 52 42 38 34 25 28 29 37 47 56 63 78 86 85 81 95 102 106 107 107 103 99 92 85 82 76 68 63 55 48 45 37 32 31 33 30 26
59 61 66 70 71 68 68 68 50 44 37 30 28 22 22 30 38 46 53 62 71 79 85 87 93 100 106 108 103 97 95 94 85 80 68 60 53 45 46 37 28 26 26 25 21
58 62 70 72 74 71 66 69 56 46 40 34 24 21 17 22 31 36 44 50 58 66 76 80 82 92 95 97 98 98 94 94 90 81 71 62 52 51 45 36 29 26 26 19 14
58 63 70 73 74 71 66 64 59 51 41 35 29 21 16 16 21 31 36 41 48 56 62 69 80 90 85 85 93 97 96 91 86 79 73 64 56 58 44 35 30 26 25 21 17
61 67 70 71 73 77 71 68 63 55 45 39 33 27 16 12 17 23 28 34 42 47 51 57 70 88 83 83 86 87 92 89 80 78 71 67 62 56 49 40 32 29 25 23 14
63 68 71 72 77 74 71 68 70 59 47 38 34 28 23 15 11 16 22 29 35 39 43 48 59 75 85 79 80 78 82 82 80 73 68 57 68 60 52 43 29 24 23 20 14
64 66 66 73 77 78 72 67 62 67 48 40 34 28 21 17 13 10 15 23 27 30 32 42 51 58 69 70 66 69 70 72 74 73 68 62 63 58 57 47 39 31 24 18 15
60 67 72 73 76 77 69 66 64 63 56 41 35 28 22 19 14 9 10 15 20 24 28 32 40 46 53 57 67 68 66 61 66 65 64 64 62 61 50 46 41 31 28 18 19
61 64 68 71 74 76 67 63 61 61 56 45 38 33 24 16 12 6 5 7 13 19 26 29 33 40 44 54 62 65 64 58 63 63 62 62 68 56 43 31 33 31 32 27 23
Wind_Direction
235 235 236 237 235 236 231 231 226 228 234 237 238 238 239 239 240 238 240 242 240 242 244 245 245 246 243 245 248 251 256 252 252 249 247 252 252 253 256 262 266 267 270 274 274
240 240 241 240 240 239 239 234 231 230 231 233 242 242 240 240 240 239 242 242 243 243 244 243 243 244 245 249 250 248 251 253 251 250 249 252 258 260 261 265 267 268 272 273 275
246 237 240 242 241 243 242 239 238 232 236 234 235 236 241 241 241 243 242 244 244 245 245 245 245 245 246 247 248 247 246 245 248 248 248 251 258 256 263 265 267 272 275 273 273
266 258 250 246 245 243 241 242 241 239 238 234 237 237 234 240 244 241 242 244 245 245 244 245 247 247 246 246 247 246 244 245 247 250 251 251 254 263 265 266 267 267 269 271 272
268 260 256 254 251 250 247 243 243 242 241 237 239 237 235 238 235 237 242 243 243 245 244 245 246 247 247 247 248 245 246 246 246 250 257 258 257 260 264 263 264 268 270 270 273
267 262 259 255 254 253 251 248 247 243 242 241 240 237 238 240 238 239 236 237 240 242 243 246 245 246 245 247 248 248 246 248 248 252 255 258 257 258 263 266 265 265 268 270 273
282 269 263 260 257 253 251 250 248 247 245 243 242 239 239 240 240 240 238 238 238 241 238 239 243 245 244 244 245 247 248 249 252 253 253 253 253 259 259 258 261 264 266 270 273
291 278 274 270 265 261 258 253 250 247 245 243 242 241 240 241 241 241 241 238 240 243 243 240 241 239 243 243 245 244 245 249 253 253 253 253 249 257 257 258 260 263 267 269 272
290 282 280 277 273 270 267 262 257 252 249 245 242 240 239 238 239 238 240 241 241 242 244 246 244 244 240 241 242 243 247 250 251 254 253 255 247 257 258 259 260 263 266 269 273
296 296 295 293 292 289 280 267 261 254 253 247 242 240 241 239 237 237 236 238 240 240 241 243 245 245 244 246 247 248 249 248 246 251 251 254 247 251 256 259 262 265 268 270 270
305 308 307 305 302 302 296 283 270 261 256 251 246 240 239 238 239 238 237 237 239 240 241 241 243 245 247 247 247 247 248 248 249 249 252 256 255 251 254 259 264 266 267 268 271
312 313 312 311 311 311 303 297 289 271 259 260 256 251 244 242 238 239 239 238 237 236 238 241 243 244 244 246 246 248 248 249 249 249 252 254 252 252 255 260 263 263 265 268 274
316 317 319 317 316 312 305 297 290 286 284 271 259 254 250 244 240 237 237 238 239 237 237 238 239 241 242 244 246 246 249 246 247 248 251 254 254 257 258 260 262 263 265 268 269
320 322 322 321 318 314 307 303 298 300 294 279 260 250 246 246 242 238 238 237 238 238 237 236 238 238 241 243 244 244 245 246 247 250 252 255 253 259 258 258 261 261 263 265 270
324 325 326 325 321 318 316 312 306 305 295 278 266 253 243 240 241 239 237 237 236 237 238 236 236 238 239 240 241 240 242 244 246 247 248 253 258 256 257 259 257 259 263 267 270
327 330 333 333 330 327 328 319 317 315 306 289 271 257 248 240 233 236 237 235 235 237 234 235 236 238 238 239 240 239 241 242 244 246 249 251 255 256 256 256 260 264 265 267 270
330 332 333 336 338 337 336 333 326 319 311 299 283 264 250 241 236 233 233 235 235 234 233 234 236 235 236 238 239 241 242 242 242 245 245 246 250 252 252 253 261 265 269 267 265
337 339 341 342 344 344 346 340 330 325 314 306 292 266 253 244 240 236 233 233 234 234 231 234 236 235 235 236 236 237 241 243 244 246 242 244 245 247 248 258 257 258 259 256 257
341 344 345 348 350 351 349 344 339 333 325 314 298 281 255 251 244 240 238 235 234 234 233 232 234 235 235 237 236 236 238 239 241 242 240 242 239 235 247 248 246 251 247 248 250
344 350 353 353 354 354 354 351 349 343 337 324 309 285 269 250 243 240 236 235 236 235 230 230 230 231 231 233 234 235 234 236 237 239 238 238 238 233 240 242 239 230 240 248 249
352 355 355 354 355 356 358 358 353 353 346 337 323 301 277 252 246 242 242 236 232 233 235 229 228 232 232 229 230 233 234 234 234 234 235 235 235 237 237 235 224 226 241 241 246
354 355 355 355 356 357 356 3 360 355 350 347 342 324 291 259 240 239 236 236 236 233 231 227 226 230 231 230 228 227 229 230 233 233 232 230 232 236 236 230 227 230 238 242 234
351 351 353 355 357 358 358 1 5 359 355 351 349 343 321 293 253 243 238 233 230 228 230 225 223 225 229 228 227 226 227 229 228 230 230 230 231 234 234 231 229 227 237 227 246
349 350 353 356 358 358 360 3 3 4 356 354 351 348 338 319 282 253 238 233 230 228 226 220 220 221 227 225 226 224 224 225 226 227 227 226 232 231 228 225 217 218 222 228 229
347 351 354 356 357 357 359 1 4 4 360 356 350 346 342 331 313 273 249 236 231 227 223 221 218 218 223 224 222 223 224 224 223 224 223 224 228 228 225 220 216 214 219 229 232
349 350 352 356 354 357 358 360 1 3 3 358 351 345 341 334 325 302 261 238 227 224 215 217 220 215 214 216 218 216 218 216 216 218 216 215 221 221 218 218 219 216 221 208 226
348 349 353 354 355 357 357 359 0 1 4 360 354 346 342 338 334 321 266 236 219 213 210 202 204 206 206 209 210 210 212 208 209 208 206 206 214 210 203 202 214 211 218 227 226
Height
10713 10718 10723 10727 10730 10735 10739 10741 10747 10753 10755 10759 10763 10768 10774 10780 10785 10792 10798 10788 10796 10802 10807 10813 10815 10814 10824 10832 10835 10846 10863 10862 10863 10861 10858 10825 10859 10853 10848 10857 10867 10871 10875 10881 10878
10706 10709 10714 10717 10719 10722 10726 10729 10732 10736 10741 10743 10746 10752 10758 10764 10769 10777 10771 10774 10779 10786 10792 10792 10794 10795 10810 10816 10826 10837 10848 10849 10844 10844 10845 10832 10837 10843 10839 10855 10854 10854 10864 10867 10863
10700 10701 10703 10705 10706 10709 10711 10714 10717 10720 10723 10726 10731 10736 10741 10748 10751 10752 10759 10759 10760 10765 10771 10772 10774 10782 10794 10798 10812 10819 10837 10829 10829 10829 10827 10830 10826 10832 10835 10850 10845 10842 10850 10852 10856
10694 10693 10693 10693 10692 10693 10693 10696 10699 10701 10703 10707 10712 10717 10724 10730 10733 10736 10734 10737 10738 10741 10753 10753 10757 10764 10777 10783 10785 10801 10818 10815 10816 10811 10813 10827 10818 10823 10836 10836 10835 10837 10839 10838 10837
10686 10684 10683 10682 10680 10679 10679 10679 10681 10682 10684 10687 10690 10695 10703 10713 10713 10705 10711 10719 10722 10723 10732 10735 10738 10745 10758 10764 10760 10787 10798 10794 10802 10802 10808 10806 10819 10819 10824 10826 10824 10823 10822 10828 10828
10673 10672 10671 10669 10667 10666 10664 10663 10662 10664 10666 10668 10669 10674 10680 10691 10677 10681 10697 10702 10698 10705 10709 10716 10722 10722 10730 10744 10748 10768 10772 10780 10789 10797 10796 10793 10805 10811 10817 10805 10808 10809 10813 10813 10815
10661 10658 10656 10653 10651 10649 10648 10646 10646 10644 10642 10643 10644 10650 10662 10657 10656 10659 10666 10674 10674 10680 10688 10693 10695 10700 10715 10724 10737 10745 10751 10763 10782 10786 10784 10770 10799 10808 10795 10785 10797 10798 10800 10805 10806
10647 10644 10641 10637 10633 10630 10628 10625 10624 10622 10620 10620 10619 10624 10636 10620 10630 10632 10637 10651 10654 10658 10665 10667 10670 10683 10698 10708 10716 10725 10733 10754 10774 10762 10760 10742 10801 10783 10771 10778 10786 10788 10794 10796 10798
10634 10630 10627 10622 10617 10612 10607 10601 10598 10595 10593 10590 10592 10596 10599 10594 10597 10608 10615 10624 10628 10636 10642 10639 10643 10662 10676 10692 10698 10708 10733 10742 10755 10735 10728 10722 10792 10767 10761 10761 10773 10779 10784 10785 10789
10620 10616 10610 10605 10598 10591 10583 10577 10571 10567 10559 10553 10558 10568 10567 10563 10571 10577 10585 10593 10599 10607 10617 10618 10622 10642 10658 10674 10698 10694 10702 10722 10732 10713 10702 10708 10767 10753 10746 10750 10763 10768 10772 10775 10773
10607 10601 10594 10587 10579 10569 10558 10550 10544 10540 10528 10512 10526 10536 10532 10534 10546 10552 10558 10570 10577 10585 10592 10597 10602 10634 10652 10641 10657 10672 10686 10702 10705 10698 10684 10712 10735 10744 10738 10741 10749 10756 10759 10759 10761
10593 10586 10578 10569 10558 10546 10532 10522 10511 10501 10499 10481 10498 10501 10505 10500 10527 10533 10533 10541 10546 10556 10563 10574 10601 10610 10612 10620 10635 10647 10666 10683 10676 10675 10680 10686 10717 10724 10732 10738 10741 10741 10747 10748 10752
10580 10572 10563 10551 10538 10524 10511 10499 10484 10468 10465 10458 10456 10454 10459 10473 10493 10499 10500 10508 10517 10530 10543 10558 10578 10580 10588 10599 10617 10633 10644 10652 10654 10655 10672 10668 10699 10704 10724 10727 10725 10733 10735 10737 10735
10570 10560 10548 10535 10520 10504 10488 10472 10452 10438 10427 10422 10415 10417 10427 10441 10449 10459 10473 10477 10489 10505 10518 10544 10553 10559 10565 10583 10594 10612 10619 10624 10635 10643 10661 10651 10685 10693 10706 10709 10711 10715 10722 10723 10722
10558 10549 10536 10521 10503 10488 10470 10449 10428 10411 10402 10395 10391 10393 10397 10408 10414 10420 10433 10449 10466 10479 10494 10531 10528 10533 10546 10564 10569 10594 10595 10607 10617 10628 10638 10653 10664 10696 10685 10690 10689 10702 10710 10714 10711
10548 10536 10523 10507 10489 10471 10452 10429 10408 10392 10381 10376 10373 10372 10377 10382 10387 10393 10404 10423 10435 10450 10477 10493 10498 10509 10533 10538 10554 10566 10579 10591 10601 10614 10632 10647 10655 10669 10672 10668 10683 10693 10700 10701 10698
10537 10524 10509 10492 10473 10454 10435 10409 10391 10375 10367 10361 10358 10356 10357 10361 10364 10370 10382 10391 10410 10420 10449 10460 10465 10494 10511 10525 10541 10552 10561 10573 10586 10604 10638 10626 10652 10646 10648 10665 10680 10683 10688 10685 10684
10527 10513 10497 10481 10461 10439 10420 10402 10379 10365 10356 10350 10344 10343 10340 10343 10347 10352 10360 10372 10381 10395 10427 10436 10452 10478 10490 10503 10521 10536 10544 10562 10582 10596 10613 10615 10644 10648 10628 10666 10672 10673 10674 10671 10675
10517 10503 10485 10469 10450 10429 10411 10393 10371 10359 10345 10337 10335 10331 10329 10331 10335 10337 10347 10355 10362 10380 10409 10419 10436 10456 10472 10482 10500 10520 10536 10556 10561 10578 10594 10610 10628 10631 10632 10651 10660 10663 10662 10664 10666
10507 10495 10477 10459 10441 10424 10403 10380 10365 10350 10339 10330 10323 10320 10319 10318 10320 10325 10331 10338 10348 10363 10375 10394 10413 10421 10434 10457 10481 10499 10517 10523 10547 10561 10584 10602 10616 10626 10627 10642 10652 10654 10653 10657 10658
10501 10487 10471 10453 10436 10418 10401 10378 10358 10344 10332 10323 10317 10313 10311 10311 10311 10313 10318 10326 10333 10343 10355 10381 10398 10399 10410 10440 10459 10476 10493 10510 10526 10548 10573 10592 10608 10608 10620 10634 10643 10646 10647 10649 10651
10495 10482 10467 10450 10432 10415 10398 10380 10357 10341 10330 10320 10314 10309 10304 10302 10303 10303 10306 10315 10321 10330 10340 10360 10377 10382 10400 10421 10435 10454 10471 10488 10513 10542 10562 10582 10599 10597 10613 10627 10636 10639 10640 10643 10645
10487 10475 10462 10448 10430 10409 10389 10368 10355 10340 10329 10318 10310 10304 10301 10298 10296 10296 10300 10303 10309 10315 10328 10344 10360 10367 10380 10401 10415 10438 10455 10478 10505 10521 10549 10571 10582 10591 10605 10617 10627 10632 10634 10638 10639
10483 10467 10450 10437 10425 10409 10391 10370 10354 10342 10329 10321 10311 10303 10298 10293 10292 10291 10292 10295 10297 10307 10317 10328 10338 10352 10363 10384 10401 10426 10443 10466 10491 10515 10537 10561 10554 10580 10594 10607 10620 10624 10628 10631 10635
10475 10464 10452 10437 10416 10401 10387 10372 10360 10344 10330 10320 10311 10302 10295 10291 10287 10286 10287 10289 10294 10300 10310 10319 10325 10336 10352 10374 10399 10418 10436 10456 10481 10504 10526 10542 10548 10564 10579 10599 10610 10617 10623 10626 10628
10471 10456 10441 10429 10415 10401 10386 10372 10357 10345 10331 10320 10309 10301 10293 10288 10285 10284 10283 10283 10288 10295 10300 10309 10321 10333 10345 10364 10384 10402 10420 10443 10470 10490 10511 10525 10539 10548 10571 10588 10602 10614 10619 10623 10625
10466 10454 10444 10429 10413 10398 10385 10375 10360 10345 10330 10317 10307 10298 10292 10288 10285 10282 10280 10281 10285 10289 10294 10300 10311 10324 10338 10351 10368 10392 10408 10432 10454 10473 10492 10511 10518 10543 10565 10580 10596 10607 10612 10617 10620